TimeCST,TemperatureF,Dew PointF,Humidity,Sea Level PressureIn,VisibilityMPH,Wind Direction,Wind SpeedMPH,Gust SpeedMPH,PrecipitationIn,Events,Conditions,WindDirDegrees,DateUTC
12:53 AM,39.0,21.9,50,29.86,10.0,WNW,6.9,-,N/A,,Clear,290,2014-01-20 06:53:00
1:53 AM,35.1,21.0,57,29.85,10.0,Calm,Calm,-,N/A,,Clear,0,2014-01-20 07:53:00
2:53 AM,32.0,21.0,64,29.88,10.0,Calm,Calm,-,N/A,,Clear,0,2014-01-20 08:53:00
3:53 AM,30.9,21.0,67,29.89,10.0,West,3.5,-,N/A,,Clear,280,2014-01-20 09:53:00
4:53 AM,27.0,19.9,75,29.93,10.0,NW,5.8,-,N/A,,Clear,310,2014-01-20 10:53:00
5:53 AM,28.0,19.9,72,29.94,10.0,WNW,4.6,-,N/A,,Clear,290,2014-01-20 11:53:00
6:53 AM,25.0,19.0,78,29.96,10.0,NW,4.6,-,N/A,,Clear,310,2014-01-20 12:53:00
7:53 AM,26.1,19.9,78,29.98,10.0,WNW,6.9,-,N/A,,Clear,300,2014-01-20 13:53:00
8:53 AM,30.9,24.1,76,30.00,10.0,WNW,5.8,-,N/A,,Clear,290,2014-01-20 14:53:00
9:53 AM,37.9,27.0,65,30.03,10.0,NW,10.4,-,N/A,,Clear,320,2014-01-20 15:53:00
10:53 AM,41.0,28.0,60,30.06,10.0,NW,11.5,-,N/A,,Clear,310,2014-01-20 16:53:00
11:53 AM,46.9,28.9,50,30.05,10.0,NW,11.5,-,N/A,,Clear,310,2014-01-20 17:53:00
12:53 PM,48.0,28.0,46,30.03,10.0,NW,20.7,27.6,N/A,,Clear,320,2014-01-20 18:53:00
1:53 PM,50.0,23.0,35,30.01,10.0,NW,24.2,34.5,N/A,,Clear,310,2014-01-20 19:53:00
2:53 PM,46.9,23.0,39,30.04,10.0,NW,18.4,35.7,N/A,,Overcast,320,2014-01-20 20:53:00
3:53 PM,46.0,21.9,39,30.07,10.0,NW,18.4,26.5,N/A,,Overcast,310,2014-01-20 21:53:00
4:53 PM,45.0,21.9,40,30.08,10.0,NW,13.8,26.5,N/A,,Mostly Cloudy,310,2014-01-20 22:53:00
5:53 PM,37.9,21.0,51,30.14,10.0,NW,20.7,35.7,N/A,,Scattered Clouds,320,2014-01-20 23:53:00
6:53 PM,30.9,18.0,59,30.20,10.0,NNW,23.0,42.6,N/A,,Scattered Clouds,330,2014-01-21 00:53:00
7:53 PM,25.0,10.9,55,30.27,10.0,NNW,25.3,39.1,N/A,,Partly Cloudy,330,2014-01-21 01:53:00
8:38 PM,23.0,12.0,63,30.27,10.0,NNW,19.6,39.1,N/A,,Overcast,330,2014-01-21 02:38:00
8:53 PM,21.0,10.0,63,30.32,10.0,NNW,23.0,38.0,N/A,,Overcast,330,2014-01-21 02:53:00
9:53 PM,18.0,8.1,65,30.35,10.0,NNW,25.3,39.1,0.00,,Overcast,330,2014-01-21 03:53:00
10:53 PM,15.1,6.1,68,30.40,10.0,NNW,17.3,33.4,0.00,,Overcast,330,2014-01-21 04:53:00
11:53 PM,10.9,1.9,67,30.44,10.0,North,15.0,27.6,0.00,,Scattered Clouds,350,2014-01-21 05:53:00